Flight Track Log - Related Links

Times and Time Zones

All times are in EDT time to prevent confusion due to time zone crossing. See the N789EX flight status page for this flight to view local times or setup timezone preferences in your user account.

Time Position Orientation Groundspeed Altitude Reporting Facility
EDT Latitude Longitude Course Direction KTS MPH feet Rate Location/Type
Thu 12:15:08 PM 47.2422 -119.3344 308° West 199 229 2,600  Level Seattle Center
Thu 12:16:10 PM 47.2781 -119.4011 308° West 227 261 3,500 1,317 Climbing Seattle Center
Thu 12:17:11 PM 47.3292 -119.4786 314° West 261 300 5,300 1,770 Climbing Seattle Center
Thu 12:18:12 PM 47.3897 -119.5603 318° Northwest 272 313 7,100 1,659 Climbing Seattle Center
Thu 12:19:14 PM 47.4489 -119.6383 318° Northwest 283 326 8,700 1,216 Climbing Seattle Center
Thu 12:25:31 PM 47.6528 -120.3270 289° West 333 383 16,000 1,076 Climbing FlightAware ADS-B
Thu 12:26:01 PM 47.6666 -120.3970 285° West 371 427 16,000  Level FlightAware ADS-B
Thu 12:26:48 PM 47.6876 -120.5180 285° West 385 443 16,000  Level FlightAware ADS-B
Thu 12:27:19 PM 47.7011 -120.5950 284° West 384 442 16,000  Level FlightAware ADS-B
Thu 12:27:49 PM 47.7143 -120.6720 284° West 385 443 16,000  Level FlightAware ADS-B
Thu 12:28:09 PM 47.7187 -120.6980 284° West 385 443 16,000  Level FlightAware ADS-B
Thu 12:28:22 PM 47.7281 -120.7580 281° West 391 450 16,000  Level FlightAware ADS-B
Thu 12:28:43 PM 47.7331 -120.8150 275° West 406 467 16,000 -235 Level FlightAware ADS-B
Thu 12:29:13 PM 47.7363 -120.8990 273° West 405 466 15,800 -261 Descending FlightAware ADS-B
Thu 12:29:29 PM 47.7380 -120.9418 273° West 409 471 15,800  Level FlightAware ADS-B
Thu 12:29:44 PM 47.7395 -120.9840 273° West 411 473 15,800 -1,263 Level FlightAware ADS-B
Thu 12:30:07 PM 47.7416 -121.0402 273° West 406 467 15,000 -2,129 Descending FlightAware ADS-B
Thu 12:30:15 PM 47.7427 -121.0700 273° West 407 468 14,700 -2,526 Descending FlightAware ADS-B
Thu 12:30:45 PM 47.7457 -121.1540 273° West 405 466 13,400 -2,471 Descending FlightAware ADS-B
Thu 12:30:49 PM 47.7460 -121.1641 273° West 404 465 13,300 -2,000 Descending FlightAware ADS-B
Thu 12:31:15 PM 47.7485 -121.2370 273° West 397 457 12,400 -2,100 Descending FlightAware ADS-B
Thu 12:31:29 PM 47.7497 -121.2707 273° West 394 453 11,900 -2,200 Descending FlightAware ADS-B
Thu 12:31:45 PM 47.7513 -121.3180 273° West 390 449 11,300 -1,500 Descending FlightAware ADS-B
Thu 12:32:13 PM 47.7540 -121.3910 273° West 388 447 10,800 -698 Descending FlightAware ADS-B
Thu 12:32:28 PM 47.7553 -121.4271 273° West 389 448 10,800  Level FlightAware ADS-B
Thu 12:32:43 PM 47.7567 -121.4710 273° West 387 445 10,800  Level FlightAware ADS-B
Thu 12:33:09 PM 47.7589 -121.5393 273° West 385 443 10,800  Level FlightAware ADS-B
Thu 12:33:13 PM 47.7592 -121.5510 273° West 381 438 10,800  Level FlightAware ADS-B
Thu 12:33:43 PM 47.7617 -121.6290 273° West 379 436 10,800  Level FlightAware ADS-B
Thu 12:33:45 PM 47.7618 -121.6325 273° West 379 436 10,800 -800 Level FlightAware ADS-B (CYVR)
Thu 12:34:13 PM 47.7639 -121.7070 273° West 369 425 10,400 -1,077 Descending FlightAware ADS-B
Thu 12:34:24 PM 47.7648 -121.7325 272° West 358 412 10,100 -1,875 Descending FlightAware ADS-B
Thu 12:34:29 PM 47.7651 -121.7450 272° West 355 409 9,900 -900 Descending FlightAware ADS-B
Thu 12:34:44 PM 47.7660 -121.7807 272° West 324 373 9,800 -375 Descending FlightAware ADS-B
Thu 12:34:45 PM 47.7661 -121.7840 272° West 322 371 9,800  Level FlightAware ADS-B
Thu 12:34:50 PM 47.7665 -121.7950 274° West 313 360 9,800 -600 Level FlightAware ADS-B
Thu 12:34:55 PM 47.7675 -121.8050 279° West 304 350 9,700 -545 Descending FlightAware ADS-B
Thu 12:35:01 PM 47.7693 -121.8150 287° West 295 339 9,700  Level FlightAware ADS-B
Thu 12:35:03 PM 47.7702 -121.8190 293° West 291 335 9,700  Level FlightAware ADS-B
Thu 12:35:04 PM 47.7713 -121.8220 295° West 288 331 9,700  Level FlightAware ADS-B
Thu 12:35:08 PM 47.7740 -121.8290 300° West 284 327 9,700  Level FlightAware ADS-B
Thu 12:35:09 PM 47.7708 -121.8209 304° West 281 323 9,700 -1,200 Level FlightAware ADS-B
Thu 12:35:13 PM 47.7779 -121.8360 309° West 277 319 9,600 -1,333 Descending FlightAware ADS-B
Thu 12:35:18 PM 47.7816 -121.8420 314° West 274 315 9,500 -1,000 Descending FlightAware ADS-B
Thu 12:35:19 PM 47.7828 -121.8440 316° Northwest 273 314 9,500 -2,000 Level FlightAware ADS-B
Thu 12:35:30 PM 47.7935 -121.8580 319° Northwest 270 311 9,100 -1,667 Descending FlightAware ADS-B
Thu 12:35:37 PM 47.7963 -121.8618 319° Northwest 267 307 9,000 -750 Descending FlightAware ADS-B (CYVR)
Thu 12:35:46 PM 47.8077 -121.8760 319° Northwest 264 304 8,900 -667 Descending FlightAware ADS-B
Thu 12:35:55 PM 47.8128 -121.8829 319° Northwest 253 291 8,800 -400 Descending FlightAware ADS-B
Thu 12:36:01 PM 47.8214 -121.8940 319° Northwest 247 284 8,800  Level FlightAware ADS-B
Thu 12:36:05 PM 47.8250 -121.8990 317° Northwest 241 277 8,800  Level FlightAware ADS-B
Thu 12:36:09 PM 47.8277 -121.9030 312° West 237 273 8,800  Level FlightAware ADS-B
Thu 12:36:13 PM 47.8307 -121.9090 304° West 232 267 8,800  Level FlightAware ADS-B
Thu 12:36:14 PM 47.8310 -121.9098 301° West 226 260 8,800  Level FlightAware ADS-B (KPFC)
Thu 12:36:18 PM 47.8328 -121.9150 298° West 227 261 8,800  Level FlightAware ADS-B
Thu 12:36:20 PM 47.8337 -121.9175 296° West 225 259 8,800  Level FlightAware ADS-B
Thu 12:36:21 PM 47.8343 -121.9200 294° West 222 255 8,800  Level FlightAware ADS-B
Thu 12:36:24 PM 47.8355 -121.9240 292° West 218 251 8,800  Level FlightAware ADS-B
Thu 12:36:31 PM 47.8377 -121.9330 288° West 210 242 8,800 -818 Level FlightAware ADS-B
Thu 12:36:46 PM 47.8420 -121.9540 287° West 205 236 8,500 -1,500 Descending FlightAware ADS-B
Thu 12:36:47 PM 47.8419 -121.9530 287° West 206 237 8,400 -2,143 Descending FlightAware ADS-B (CYVR)
Thu 12:37:00 PM 47.8458 -121.9730 286° West 207 238 8,000 -1,909 Descending FlightAware ADS-B
Thu 12:37:09 PM 47.8476 -121.9819 286° West 207 238 7,700 -2,000 Descending FlightAware ADS-B
Thu 12:37:15 PM 47.8498 -121.9930 286° West 208 239 7,500 -1,895 Descending FlightAware ADS-B
Thu 12:37:28 PM 47.8524 -122.0072 286° West 208 239 7,100 -1,875 Descending FlightAware ADS-B
Thu 12:37:31 PM 47.8538 -122.0150 286° West 208 239 7,000 -2,000 Descending FlightAware ADS-B
Thu 12:37:46 PM 47.8577 -122.0360 285° West 205 236 6,500 -1,667 Descending FlightAware ADS-B
Thu 12:37:49 PM 47.8584 -122.0392 285° West 205 236 6,500 -1,600 Level FlightAware ADS-B
Thu 12:38:01 PM 47.8615 -122.0570 285° West 203 234 6,100 -2,000 Descending FlightAware ADS-B
Thu 12:38:04 PM 47.8617 -122.0573 286° West 202 232 6,000 -1,500 Descending FlightAware ADS-B
Thu 12:38:17 PM 47.8654 -122.0770 285° West 203 234 5,700 -1,579 Descending FlightAware ADS-B
Thu 12:38:23 PM 47.8670 -122.0858 286° West 205 236 5,500 -1,600 Descending FlightAware ADS-B
Thu 12:38:32 PM 47.8691 -122.0980 285° West 205 236 5,300 -1,500 Descending FlightAware ADS-B
Thu 12:38:35 PM 47.8699 -122.1020 285° West 206 237 5,200 -1,000 Descending FlightAware ADS-B
Thu 12:38:38 PM 47.8706 -122.1060 282° West 206 237 5,200 -1,500 Level FlightAware ADS-B
Thu 12:38:43 PM 47.8711 -122.1125 274° West 207 238 5,000 -2,000 Descending FlightAware ADS-B
Thu 12:38:44 PM 47.8711 -122.1150 272° West 206 237 5,000 -1,200 Level FlightAware ADS-B
Thu 12:38:48 PM 47.8710 -122.1200 267° West 206 237 4,900 -1,200 Descending FlightAware ADS-B
Thu 12:38:54 PM 47.8702 -122.1290 261° West 206 237 4,800 -1,091 Descending FlightAware ADS-B
Thu 12:39:10 PM 47.8671 -122.1501 257° West 205 236 4,500 -1,059 Descending FlightAware ADS-B
Thu 12:39:11 PM 47.8668 -122.1520 258° West 205 236 4,500 -1,059 Level FlightAware ADS-B
Thu 12:39:27 PM 47.8635 -122.1730 257° West 203 234 4,200 -1,263 Descending FlightAware ADS-B
Thu 12:39:30 PM 47.8628 -122.1774 257° West 200 230 4,100 -1,043 Descending FlightAware ADS-B
Thu 12:39:50 PM 47.8589 -122.2034 257° West 197 227 3,800 -1,000 Descending FlightAware ADS-B
Thu 12:39:54 PM 47.8579 -122.2100 257° West 200 230 3,700 -1,200 Descending FlightAware ADS-B
Thu 12:40:10 PM 47.8548 -122.2299 257° West 195 224 3,400 -1,167 Descending FlightAware ADS-B
Thu 12:40:30 PM 47.8506 -122.2558 256° West 193 222 3,000 -900 Descending FlightAware ADS-B
Thu 12:40:50 PM 47.8457 -122.2807 243° Southwest 191 220 2,800 -789 Descending FlightAware ADS-B
Thu 12:41:08 PM 47.8356 -122.2966 218° Southwest 195 224 2,500 -889 Descending FlightAware ADS-B
Thu 12:41:44 PM 47.8100 -122.3245 217° Southwest 193 222 2,000 -545 Descending FlightAware ADS-B
Thu 12:42:03 PM 47.7950 -122.3416 218° Southwest 193 222 2,000  Level FlightAware ADS-B
Thu 12:42:22 PM 47.7829 -122.3554 217° Southwest 191 220 2,000  Level FlightAware ADS-B
Thu 12:42:42 PM 47.7670 -122.3740 218° Southwest 192 221 2,000  Level FlightAware ADS-B
Thu 12:42:46 PM 47.7645 -122.3764 218° Southwest 192 221 2,000  Level FlightAware ADS-B
Thu 12:43:05 PM 47.7515 -122.3910 218° Southwest 192 221 2,000  Level FlightAware ADS-B
Thu 12:43:28 PM 47.7353 -122.4090 218° Southwest 192 221 2,000  Level FlightAware ADS-B
Thu 12:44:07 PM 47.7041 -122.4210 217° Southwest 183 211 2,000  Level FlightAware ADS-B
Thu 12:44:32 PM 47.6851 -122.4199 177° South 185 213 2,000  Level FlightAware ADS-B
Thu 12:44:34 PM 47.6812 -122.4200 177° South 185 213 2,000  Level FlightAware ADS-B
Thu 12:44:51 PM 47.6764 -122.4191 164° South 185 213 2,000  Level FlightAware ADS-B
Thu 12:44:54 PM 47.6648 -122.4160 167° South 185 213 2,000  Level FlightAware ADS-B
Thu 12:45:06 PM 47.6552 -122.4090 151° Southeast 188 216 2,000  Level FlightAware ADS-B
Thu 12:45:14 PM 47.6491 -122.4040 150° Southeast 188 216 2,000  Level FlightAware ADS-B
Thu 12:45:26 PM 47.6406 -122.3960 150° Southeast 188 216 2,000  Level FlightAware ADS-B
Thu 12:45:28 PM 47.6390 -122.3950 149° Southeast 188 216 2,000  Level FlightAware ADS-B
Thu 12:45:36 PM 47.6328 -122.3900 150° Southeast 189 217 2,000 -600 Level FlightAware ADS-B
Thu 12:45:48 PM 47.6241 -122.3821 150° Southeast 186 214 1,800 -1,200 Descending FlightAware ADS-B
Thu 12:45:51 PM 47.6214 -122.3800 150° Southeast 185 213 1,700 -1,333 Descending FlightAware ADS-B
Thu 12:46:06 PM 47.6104 -122.3704 150° Southeast 178 205 1,400 -1,143 Descending FlightAware ADS-B
Thu 12:46:12 PM 47.6065 -122.3670 150° Southeast 176 203 1,300 -938 Descending FlightAware ADS-B
Thu 12:46:38 PM 47.5922 -122.3550 150° Southeast 164 189 900 -614 Descending FlightAware ADS-B
Thu 12:47:40 PM 47.5542 -122.3236 150° Southeast 163 188 400 -553 Descending Seattle Center
Thu 12:47:54 PM 47.5475 -122.3178 149° Southeast 161 185 200 -237 Descending Seattle Center
Thu 12:48:56 PM 47.5017 -122.2797 151° Southeast 161 185 100 -97 Descending Seattle Center
Thu 12:50:00 PM 47.5167 -122.3000 247° West  Level FlightAware Approximate

Login

Don't have an account? Register now (free) for customized features, flight alerts, and more!